Location: Newark
(35.6799°N, 139.7636°E)
Time: 21:26:49
(UTC+00:00)

Vanguard 2 Rocket - Visible Passes

Search period start: 12 December 2019 00:00
Search period end: 22 December 2019 00:00
Orbit: 554 x 3326 km, 32.9° (Epoch: 11 December)

Date Brightness Start Highest point End Pass type
(mag) Time Alt. Az. Time Alt. Az. Time Alt. Az.
12 Dec 9.1 07:38:00 10° SW 07:54:41 58° SSE 08:04:28 10° E visible
12 Dec 7.7 09:56:42 10° W 10:09:54 76° S 10:11:03 68° SE visible
12 Dec 9.9 12:15:01 10° W 12:16:52 16° W 12:16:52 16° W visible
13 Dec 8.4 08:54:08 10° WSW 09:09:31 74° S 09:14:55 29° E visible
13 Dec 8.7 11:13:09 10° W 11:20:44 42° W 11:20:44 42° W visible
14 Dec 9.0 07:51:30 10° WSW 08:08:47 69° SSE 08:18:45 10° E visible
14 Dec 7.8 10:10:49 10° W 10:24:04 76° S 10:24:37 74° SSE visible
14 Dec 10.1 12:29:18 10° W 12:30:26 13° W 12:30:26 13° W visible
15 Dec 8.4 09:08:08 10° W 09:23:42 78° S 09:28:32 35° E visible
15 Dec 9.0 11:27:20 10° W 11:34:20 36° W 11:34:20 36° W visible
16 Dec 8.9 08:05:19 10° WSW 08:22:55 77° S 08:32:27 13° E visible
16 Dec 7.9 10:24:58 10° W 10:38:11 70° SSW 10:38:15 70° SSW visible
16 Dec 10.2 12:43:50 10° W 12:44:04 11° W 12:44:04 11° W visible
17 Dec 8.3 09:22:15 10° W 09:37:52 77° S 09:42:12 39° ESE visible
17 Dec 9.3 11:41:35 10° W 11:48:01 31° WSW 11:48:01 31° WSW visible
18 Dec 8.8 08:19:21 10° W 08:37:05 80° S 08:46:10 15° E visible
18 Dec 8.2 10:39:08 10° W 10:51:59 59° SSW 10:51:59 59° SSW visible
19 Dec 8.4 09:36:23 10° W 09:51:58 71° SSW 09:56:00 41° SE visible
19 Dec 9.5 11:56:03 10° W 12:01:49 25° WSW 12:01:49 25° WSW visible
20 Dec 8.8 08:33:28 10° W 08:51:13 78° S 09:00:03 17° ESE visible
20 Dec 8.6 10:53:21 10° W 11:05:53 47° SSW 11:05:53 47° SSW visible
21 Dec 9.3 07:30:32 10° W 07:49:58 81° S 08:01:57 10° E visible
21 Dec 8.6 09:50:32 10° W 10:05:54 62° SSW 10:09:59 39° SE visible
21 Dec 9.8 12:11:01 10° W 12:15:49 19° WSW 12:15:49 19° WSW visible
